| time (UTC) | temp F | wind direction | speed MPH | gust MPH | rain 1hr in | rain 24hr in | rain mn in | humidity % | barometer mb |
| 20260504151056 | 65 | 0.0 | 0.0 | 0.00 | 0.02 | 0.02 | 79 | 1012.7 | |
| 20260504150544 | 65 | 0.0 | 0.0 | 0.02 | 0.02 | 0.02 | 79 | 1012.7 | |
| 20260504141056 | 67 | 0.0 | 0.0 | 0.01 | 0.09 | 0.01 | 76 | 1012.9 | |
| 20260504140546 | 67 | 0.0 | 0.0 | 0.00 | 0.09 | 0.00 | 74 | 1013.0 | |
| 20260504130549 | 68 | 0.0 | 0.0 | 0.00 | 0.21 | 0.00 | 72 | 1013.3 | |
| 20260504110543 | 63 | 0.0 | 0.0 | 0.00 | 0.21 | 0.00 | 80 | 1013.9 | |
| 20260504100543 | 62 | 0.0 | 0.0 | 0.00 | 0.21 | 0.00 | 82 | 1014.0 | |
| 20260504081502 | 60 | 0.0 | 0.0 | 0.00 | 0.28 | 0.00 | 88 | 1013.9 | |
| 20260504081053 | 60 | 0.0 | 0.0 | 0.00 | 0.28 | 0.00 | 89 | 1013.9 | |
| 20260504080542 | 60 | 0.0 | 0.0 | 0.00 | 0.28 | 0.00 | 90 | 1013.8 | |
| 20260504050542 | 54 | 0.0 | 0.0 | 0.00 | 0.28 | 0.00 | 94 | 1012.7 | |
| 20260504050000 | 54 | 0.0 | 0.0 | 0.00 | 0.28 | 0.00 | 93 | 1012.6 | |
| 20260504045552 | 54 | 0.0 | 0.0 | 0.00 | 0.28 | 0.00 | 93 | 1012.5 | |
| 20260504045044 | 54 | 0.0 | 0.0 | 0.00 | 0.28 | 0.00 | 93 | 1012.5 | |
| 20260504044514 | 54 | 0.0 | 0.0 | 0.00 | 0.28 | 0.00 | 93 | 1012.6 | |
| 20260504044002 | 54 | 0.0 | 0.0 | 0.00 | 0.28 | 0.00 | 93 | 1012.7 | |
| 20260504043557 | 54 | 0.0 | 0.0 | 0.00 | 0.28 | 0.00 | 93 | 1012.6 | |
| 20260504043014 | 54 | 0.0 | 0.0 | 0.00 | 0.28 | 0.00 | 93 | 1012.6 | |
| 20260504042503 | 54 | 0.0 | 0.0 | 0.00 | 0.28 | 0.00 | 93 | 1012.8 | |
| 20260504042056 | 54 | 0.0 | 0.0 | 0.00 | 0.28 | 0.00 | 93 | 1012.9 | |
| 20260504041515 | 54 | 0.0 | 0.0 | 0.00 | 0.28 | 0.00 | 93 | 1012.8 | |
| 20260504041005 | 54 | 0.0 | 0.0 | 0.00 | 0.28 | 0.00 | 93 | 1012.8 | |
| 20260504040556 | 54 | 0.0 | 0.0 | 0.00 | 0.28 | 0.00 | 93 | 1012.8 | |
| 20260504040026 | 54 | 0.0 | 0.0 | 0.00 | 0.28 | 0.00 | 93 | 1012.7 | |
| 20260504035513 | 54 | 0.0 | 0.0 | 0.00 | 0.28 | 0.00 | 93 | 1012.8 | |
| 20260504035001 | 54 | 0.0 | 0.0 | 0.00 | 0.28 | 0.00 | 93 | 1012.8 | |
| 20260504034522 | 54 | 0.0 | 0.0 | 0.00 | 0.28 | 0.00 | 93 | 1012.7 | |
| 20260504034010 | 54 | 0.0 | 0.0 | 0.00 | 0.28 | 0.00 | 93 | 1012.6 | |
| 20260504033600 | 54 | 0.0 | 0.0 | 0.00 | 0.28 | 0.00 | 93 | 1012.6 | |
| 20260504033019 | 54 | 0.0 | 0.0 | 0.00 | 0.28 | 0.00 | 93 | 1012.7 | |
| 20260504032507 | 54 | 0.0 | 0.0 | 0.00 | 0.28 | 0.00 | 93 | 1012.9 | |
| 20260504032058 | 54 | 0.0 | 0.0 | 0.00 | 0.28 | 0.00 | 93 | 1012.8 | |
| 20260504031518 | 54 | 0.0 | 0.0 | 0.00 | 0.28 | 0.00 | 93 | 1012.8 | |
| 20260504031005 | 54 | 0.0 | 0.0 | 0.00 | 0.28 | 0.00 | 93 | 1012.8 | |
| 20260504030555 | 55 | 0.0 | 0.0 | 0.00 | 0.28 | 0.00 | 93 | 1012.8 | |
| 20260504030015 | 55 | 0.0 | 0.0 | 0.00 | 0.28 | 0.00 | 93 | 1012.8 | |
| 20260504025504 | 55 | 0.0 | 0.0 | 0.00 | 0.28 | 0.00 | 93 | 1012.8 | |
| 20260504025057 | 54 | 0.0 | 0.0 | 0.00 | 0.28 | 0.00 | 93 | 1012.8 | |
| 20260504024516 | 54 | 0.0 | 0.0 | 0.00 | 0.28 | 0.00 | 93 | 1012.8 | |
| 20260504024104 | 54 | 0.0 | 0.0 | 0.00 | 0.28 | 0.00 | 93 | 1012.8 | |
| 20260504023550 | 54 | 0.0 | 0.0 | 0.00 | 0.28 | 0.00 | 93 | 1012.8 | |
| 20260504023010 | 54 | 0.0 | 0.0 | 0.00 | 0.28 | 0.00 | 93 | 1012.7 | |
| 20260504022600 | 53 | 0.0 | 0.0 | 0.00 | 0.28 | 0.00 | 93 | 1012.8 | |
| 20260504022048 | 53 | 0.0 | 0.0 | 0.00 | 0.28 | 0.00 | 93 | 1012.7 | |
| 20260504021519 | 52 | 0.0 | 0.0 | 0.00 | 0.28 | 0.00 | 93 | 1012.7 | |
| 20260504021005 | 52 | 0.0 | 0.0 | 0.00 | 0.28 | 0.00 | 93 | 1012.7 | |
| 20260504020555 | 52 | 0.0 | 0.0 | 0.00 | 0.28 | 0.00 | 92 | 1012.6 | |
| 20260504020014 | 51 | 0.0 | 0.0 | 0.00 | 0.59 | 0.00 | 92 | 1012.7 | |
| 20260504015503 | 51 | 0.0 | 0.0 | 0.00 | 0.59 | 0.00 | 92 | 1012.5 | |
| 20260504015054 | 51 | 0.0 | 0.0 | 0.00 | 0.59 | 0.00 | 92 | 1012.4 | |
| 20260504014513 | 51 | 0.0 | 0.0 | 0.00 | 0.59 | 0.00 | 92 | 1012.4 | |
| 20260504014001 | 51 | 0.0 | 0.0 | 0.00 | 0.59 | 0.00 | 92 | 1012.4 | |
| 20260504013551 | 51 | 0.0 | 0.0 | 0.00 | 0.59 | 0.00 | 92 | 1012.6 | |
| 20260504013032 | 51 | 0.0 | 0.0 | 0.00 | 0.59 | 0.00 | 91 | 1012.4 | |
| 20260504012507 | 51 | 0.0 | 0.0 | 0.00 | 0.59 | 0.00 | 91 | 1012.4 | |
| 20260504012101 | 51 | 0.0 | 0.0 | 0.00 | 0.59 | 0.00 | 91 | 1012.3 | |
| 20260504011517 | 52 | 0.0 | 0.0 | 0.00 | 0.59 | 0.00 | 91 | 1012.4 | |
| 20260504011007 | 52 | 0.0 | 0.0 | 0.00 | 0.59 | 0.00 | 92 | 1012.2 | |
| 20260504010555 | 52 | 0.0 | 0.0 | 0.00 | 0.59 | 0.00 | 91 | 1012.2 | |
| 20260504010014 | 52 | 0.0 | 0.0 | 0.00 | 0.59 | 0.00 | 91 | 1012.3 | |
| 20260504005502 | 52 | 0.0 | 0.0 | 0.00 | 0.59 | 0.00 | 91 | 1012.3 | |
| 20260504005053 | 52 | 0.0 | 0.0 | 0.00 | 0.59 | 0.00 | 91 | 1012.4 | |
| 20260504004511 | 52 | 0.0 | 0.0 | 0.00 | 0.59 | 0.00 | 91 | 1012.4 | |
| 20260504004103 | 52 | 0.0 | 0.0 | 0.00 | 0.59 | 0.00 | 91 | 1012.4 | |
| 20260504003549 | 52 | 0.0 | 0.0 | 0.00 | 0.59 | 0.00 | 91 | 1012.5 | |
| 20260504003034 | 52 | 0.0 | 0.0 | 0.00 | 0.59 | 0.00 | 91 | 1012.4 | |
| 20260504002506 | 53 | 0.0 | 0.0 | 0.00 | 0.59 | 0.00 | 91 | 1012.5 | |
| 20260504002056 | 53 | 0.0 | 0.0 | 0.00 | 0.59 | 0.00 | 91 | 1012.6 | |
| 20260504001515 | 53 | 0.0 | 0.0 | 0.00 | 0.59 | 0.00 | 91 | 1012.6 | |
| 20260504001004 | 53 | 0.0 | 0.0 | 0.00 | 0.59 | 0.00 | 91 | 1012.6 | |
| 20260504000553 | 53 | 0.0 | 0.0 | 0.00 | 0.59 | 0.00 | 91 | 1012.6 | |
| 20260504000021 | 53 | 0.0 | 0.0 | 0.00 | 0.59 | 0.00 | 91 | 1012.6 | |
| 20260503235509 | 53 | 0.0 | 0.0 | 0.00 | 0.59 | 0.00 | 91 | 1012.6 | |
| 20260503235100 | 53 | 0.0 | 0.0 | 0.00 | 0.59 | 0.00 | 91 | 1012.5 | |
| 20260503234519 | 54 | 0.0 | 0.0 | 0.00 | 0.59 | 0.00 | 91 | 1012.6 | |
| 20260503234007 | 54 | 0.0 | 0.0 | 0.00 | 0.59 | 0.00 | 91 | 1012.5 | |
| 20260503233556 | 54 | 0.0 | 0.0 | 0.00 | 0.59 | 0.00 | 91 | 1012.6 | |
| 20260503233016 | 54 | 0.0 | 0.0 | 0.00 | 0.59 | 0.00 | 91 | 1012.5 | |
| 20260503232504 | 54 | 0.0 | 0.0 | 0.00 | 0.59 | 0.00 | 90 | 1012.5 | |
| 20260503232054 | 55 | 0.0 | 0.0 | 0.00 | 0.59 | 0.00 | 91 | 1012.5 | |
| 20260503231523 | 55 | 0.0 | 0.0 | 0.00 | 0.59 | 0.00 | 91 | 1012.6 | |
| 20260503231011 | 55 | 0.0 | 0.0 | 0.00 | 0.59 | 0.00 | 91 | 1012.6 | |
| 20260503230602 | 55 | 0.0 | 0.0 | 0.00 | 0.59 | 0.00 | 91 | 1012.5 | |
| 20260503230020 | 56 | 0.0 | 0.0 | 0.00 | 0.60 | 0.00 | 91 | 1012.6 | |
| 20260503225501 | 56 | 0.0 | 0.0 | 0.00 | 0.60 | 0.00 | 91 | 1012.6 | |
| 20260503225051 | 56 | 0.0 | 0.0 | 0.00 | 0.60 | 0.00 | 91 | 1012.7 | |
| 20260503224518 | 56 | 0.0 | 0.0 | 0.00 | 0.60 | 0.00 | 91 | 1012.7 | |
| 20260503224101 | 56 | 0.0 | 0.0 | 0.00 | 0.60 | 0.00 | 91 | 1012.8 | |
| 20260503223549 | 56 | 0.0 | 0.0 | 0.00 | 0.60 | 0.00 | 91 | 1012.8 | |
| 20260503223008 | 56 | 0.0 | 0.0 | 0.00 | 0.60 | 0.00 | 91 | 1012.6 | |
| 20260503222557 | 56 | 0.0 | 0.0 | 0.00 | 0.60 | 0.00 | 90 | 1012.5 | |
| 20260503222046 | 56 | 0.0 | 0.0 | 0.00 | 0.60 | 0.00 | 90 | 1012.5 | |
| 20260503221508 | 56 | 0.0 | 0.0 | 0.00 | 0.60 | 0.00 | 91 | 1012.3 | |
| 20260503221101 | 56 | 0.0 | 0.0 | 0.00 | 0.60 | 0.00 | 91 | 1012.3 | |
| 20260503220545 | 56 | 0.0 | 0.0 | 0.00 | 0.60 | 0.00 | 90 | 1012.3 | |
| 20260503220020 | 56 | 0.0 | 0.0 | 0.00 | 0.60 | 0.60 | 91 | 1012.3 | |
| 20260503215502 | 57 | 0.0 | 0.0 | 0.00 | 0.60 | 0.60 | 91 | 1012.3 | |
| 20260503215052 | 57 | 0.0 | 0.0 | 0.00 | 0.60 | 0.60 | 91 | 1012.2 | |
| 20260503214511 | 57 | 0.0 | 0.0 | 0.00 | 0.60 | 0.60 | 91 | 1012.1 | |
| 20260503214101 | 57 | 0.0 | 0.0 | 0.00 | 0.60 | 0.60 | 91 | 1012.2 | |
| 20260503213550 | 57 | 0.0 | 0.0 | 0.00 | 0.60 | 0.60 | 91 | 1012.1 | |
| 20260503213019 | 57 | 0.0 | 0.0 | 0.00 | 0.60 | 0.60 | 91 | 1012.2 | |
| 20260503212510 | 57 | 0.0 | 0.0 | 0.00 | 0.60 | 0.60 | 91 | 1012.2 | |
| 20260503212056 | 58 | 0.0 | 0.0 | 0.00 | 0.60 | 0.60 | 91 | 1012.2 | |
| 20260503211516 | 58 | 0.0 | 0.0 | 0.00 | 0.60 | 0.60 | 91 | 1012.2 | |
| 20260503211005 | 58 | 0.0 | 0.0 | 0.00 | 0.60 | 0.60 | 91 | 1012.3 | |
| 20260503210555 | 58 | 0.0 | 0.0 | 0.00 | 0.60 | 0.60 | 91 | 1012.1 | |
| 20260503210014 | 58 | 0.0 | 0.0 | 0.00 | 0.60 | 0.60 | 91 | 1012.1 | |
| 20260503205503 | 58 | 0.0 | 0.0 | 0.00 | 0.60 | 0.60 | 91 | 1012.1 | |
| 20260503205054 | 58 | 0.0 | 0.0 | 0.00 | 0.60 | 0.60 | 91 | 1012.0 | |
| 20260503204523 | 58 | 0.0 | 0.0 | 0.00 | 0.60 | 0.60 | 91 | 1012.1 | |
| 20260503204010 | 58 | 0.0 | 0.0 | 0.00 | 0.60 | 0.60 | 91 | 1011.9 | |
| 20260503203604 | 59 | 0.0 | 0.0 | 0.00 | 0.60 | 0.60 | 91 | 1012.0 | |
| 20260503203027 | 59 | 0.0 | 0.0 | 0.00 | 0.60 | 0.60 | 91 | 1012.0 | |
| 20260503202508 | 59 | 0.0 | 0.0 | 0.00 | 0.60 | 0.60 | 91 | 1012.1 | |
| 20260503202101 | 59 | 0.0 | 0.0 | 0.00 | 0.60 | 0.60 | 91 | 1012.2 | |
| 20260503201518 | 59 | 0.0 | 0.0 | 0.00 | 0.60 | 0.60 | 91 | 1012.1 | |
| 20260503201105 | 59 | 0.0 | 0.0 | 0.00 | 0.60 | 0.60 | 91 | 1012.0 | |
| 20260503200545 | 59 | 0.0 | 0.0 | 0.00 | 0.60 | 0.60 | 91 | 1012.0 | |
| 20260503200011 | 59 | 0.0 | 0.0 | 0.00 | 0.60 | 0.60 | 91 | 1012.1 | |
| 20260503195602 | 59 | 0.0 | 0.0 | 0.00 | 0.60 | 0.60 | 91 | 1012.0 | |
| 20260503195050 | 59 | 0.0 | 0.0 | 0.00 | 0.60 | 0.60 | 91 | 1012.1 | |
| 20260503194510 | 59 | 0.0 | 0.0 | 0.00 | 0.60 | 0.60 | 91 | 1012.2 | |
| 20260503194058 | 59 | 0.0 | 0.0 | 0.00 | 0.60 | 0.60 | 91 | 1012.1 | |
| 20260503193548 | 59 | 0.0 | 0.0 | 0.00 | 0.60 | 0.60 | 91 | 1012.1 | |
| 20260503193005 | 59 | 0.0 | 0.0 | 0.00 | 0.60 | 0.60 | 91 | 1012.2 | |
| 20260503192555 | 59 | 0.0 | 0.0 | 0.00 | 0.60 | 0.60 | 91 | 1012.2 | |
| 20260503192042 | 59 | 0.0 | 0.0 | 0.00 | 0.60 | 0.60 | 91 | 1012.2 | |
| 20260503191511 | 59 | 0.0 | 0.0 | 0.00 | 0.60 | 0.60 | 91 | 1012.1 | |
| 20260503191103 | 59 | 0.0 | 0.0 | 0.00 | 0.60 | 0.60 | 91 | 1012.2 | |
| 20260503190548 | 59 | 0.0 | 0.0 | 0.00 | 0.60 | 0.60 | 91 | 1012.1 | |
| 20260503190005 | 59 | 0.0 | 0.0 | 0.00 | 0.60 | 0.60 | 91 | 1012.2 | |
| 20260503185554 | 59 | 0.0 | 0.0 | 0.00 | 0.60 | 0.60 | 91 | 1012.1 | |
| 20260503185042 | 59 | 0.0 | 0.0 | 0.00 | 0.60 | 0.60 | 91 | 1011.9 | |
| 20260503184501 | 59 | 0.0 | 0.0 | 0.00 | 0.60 | 0.60 | 91 | 1012.0 | |
| 20260503184053 | 59 | 0.0 | 0.0 | 0.00 | 0.60 | 0.60 | 91 | 1011.9 | |
| 20260503183540 | 59 | 0.0 | 0.0 | 0.00 | 0.60 | 0.60 | 91 | 1012.0 | |
| 20260503183008 | 59 | 0.0 | 0.0 | 0.00 | 0.60 | 0.60 | 91 | 1012.0 | |
| 20260503182558 | 59 | 0.0 | 0.0 | 0.00 | 0.60 | 0.60 | 91 | 1011.9 | |
| 20260503182046 | 59 | 0.0 | 0.0 | 0.00 | 0.60 | 0.60 | 91 | 1011.8 | |
| 20260503181506 | 59 | 0.0 | 0.0 | 0.00 | 0.60 | 0.60 | 91 | 1011.9 | |
| 20260503181056 | 59 | 0.0 | 0.0 | 0.00 | 0.60 | 0.60 | 91 | 1011.9 | |
| 20260503180544 | 59 | 0.0 | 0.0 | 0.00 | 0.60 | 0.60 | 91 | 1011.8 | |
| 20260503180003 | 59 | 0.0 | 0.0 | 0.00 | 0.60 | 0.60 | 91 | 1011.7 | |
| 20260503175552 | 59 | 0.0 | 0.0 | 0.00 | 0.60 | 0.60 | 91 | 1011.7 | |
| 20260503175043 | 59 | 0.0 | 0.0 | 0.00 | 0.60 | 0.60 | 91 | 1011.7 | |
| 20260503174603 | 59 | 0.0 | 0.0 | 0.00 | 0.60 | 0.60 | 91 | 1011.7 | |
| 20260503174050 | 59 | 0.0 | 0.0 | 0.00 | 0.60 | 0.60 | 91 | 1011.5 | |
| 20260503173542 | 59 | 0.0 | 0.0 | 0.00 | 0.60 | 0.60 | 91 | 1011.5 | |
| 20260503173007 | 59 | 0.0 | 0.0 | 0.00 | 0.60 | 0.60 | 91 | 1011.5 | |
| 20260503172557 | 59 | 0.0 | 0.0 | 0.00 | 0.60 | 0.60 | 91 | 1011.7 | |
| 20260503172044 | 59 | 0.0 | 0.0 | 0.00 | 0.60 | 0.60 | 91 | 1011.6 | |
| 20260503171509 | 59 | 0.0 | 0.0 | 0.00 | 0.60 | 0.60 | 91 | 1011.7 | |
| 20260503171059 | 59 | 0.0 | 0.0 | 0.00 | 0.60 | 0.60 | 92 | 1011.7 | |
| 20260503170542 | 58 | 0.0 | 0.0 | 0.00 | 0.60 | 0.60 | 92 | 1011.6 |